Regional Weather Roundup
Issued by NWS Mobile, AL

Home | Current Version | Previous Version | Text Only | Print | Product List | Glossary On
Versions: 1 2 3 4 5 6 7 8 9 10 11 12 13 14 15 16 17 18 19 20 21 22 23 24 25 26 27 28 29 30 31 32 33 34 35 36 37 38 39 40 41 42 43 44 45 46 47
000
ASUS44 KMOB 261510
RWRMOB
REGIONAL WEATHER ROUNDUP
NATIONAL WEATHER SERVICE MOBILE AL
900 AM CST FRI DEC 26 2014

NOTE: "FAIR" INDICATES FEW OR NO CLOUDS BELOW 12,000 FEET WITH NO
      SIGNIFICANT WEATHER AND/OR OBSTRUCTIONS TO VISIBILITY.

  * THESE STATIONS ARE PART OF THE UNIVERSITY OF SOUTH ALABAMA
    MESONET AND ARE NOT UNDER NWS OR FAA QUALITY CONTROL.

ALZ061>064-261600-
COASTAL ALABAMA

CITY           SKY/WX    TMP DP  RH WIND       PRES   REMARKS
MOBILE REG APT CLOUDY    49  43  80 NE8       30.28R
BROOKLEY FIELD CLOUDY    50  43  77 N8        30.30R
USA CAMPUS*      N/A     48  43  81 NE5       30.29R
DOG RIVER*     NOT AVBL


CITY           SKY/WX    TMP DP  RH WIND       PRES   REMARKS
MOUNT VERNON*    N/A     43  41  93 CALM      30.32R
SARALAND*      NOT AVBL
BAY MINETTE*   NOT AVBL
LOXLEY*          N/A     48  43  81 NE7       30.28R
ROBERTSDALE*     N/A     52  45  76 CALM      30.28R
FAIRHOPE*        N/A     52  48  87 NE8       30.27R
ELBERTA*         N/A     48  46  93 NE5       30.27R
FOLEY*           N/A     46  43  87 CALM      30.27R
GRAND BAY*       N/A     52  48  87 NE5       30.26R
DAUPHIN ISLND* NOT AVBL
BON SCOUR NWR* NOT AVBL
GULF SHORES    PTSUNNY   49  47  92 NE3       30.27R

$$

ALZ051>060-261600-
INTERIOR SOUTHWEST AND SOUTH CENTRAL ALABAMA

CITY           SKY/WX    TMP DP  RH WIND       PRES   REMARKS
GREENVILLE     NOT AVBL
EVERGREEN      MOSUNNY   46  41  82 NE3       30.33R
CASTLEBERRY*   NOT AVBL
ATMORE*          N/A     46  41  81 E7        30.32R
DIXIE*           N/A     43  39  87 N2        30.28R
ANDALUSIA/OPP  SUNNY     50  40  68 E7        30.32R
ANDALUSIA*       N/A     46  41  81 E8        30.30R
FLORALA APT    SUNNY     47  41  80 E7        30.32R
FLORALA*         N/A     46  43  87 CALM      30.27R

$$

FLZ001>006-261600-
WESTERN FLORIDA PANHANDLE

CITY           SKY/WX    TMP DP  RH WIND       PRES   REMARKS
PENSACOLA      PTSUNNY   51  45  79 NE6       30.28R
NAS PENSACOLA  NOT AVBL
MILTON         MOSUNNY   51  42  71 E9        30.29R
WHTNG S FIELD  MOSUNNY   53  42  66 E10       30.29R


CITY           SKY/WX    TMP DP  RH WIND       PRES   REMARKS
WALNUT HILL*   NOT AVBL
JAY*           NOT AVBL
DUKE FIELD     SUNNY     51  40  66 VRB1      30.30R
CRESTVIEW      SUNNY     47  42  83 E5        30.32R
VALPARAISO     SUNNY     51  41  67 E9        30.30R
DESTIN         SUNNY     55  42  61 E7        30.29R

$$

MSZ076-079-261600-
INTERIOR SOUTHEAST MISSISSIPPI

CITY           SKY/WX    TMP DP  RH WIND       PRES   REMARKS
LEAKESVILLE*   NOT AVBL
AGRICOLA*      NOT AVBL

$$

MARINE OBSERVATIONS

STATION/POSITION TIME  TEMP    WIND        PRES    WAVE
                       AIR SEA DIR/SP/G            HT/PER
                 (UTC) (F)     (DEG/KT/KT) (MB)    (FT/S)
PASCAGOULA       1500   49      10/  8/  9 1024.4R
PETIT BOIS ISLND 1500   55      40/ 10/ 11 1024.8R
GRAND BAY        1400   46      30/  5     1024.0S
KATRINA CUT      1400   53      50/ 13     1025.4R
CEDAR POINT      1400   52      30/ 11     1024.7R
E DAUPHIN ISLAND 1400   53      30/ 11/ 11 1023.6R
MIDDLE BAY LIGHT 1400   55      20/  9     1024.0R
USCG MOBILE BAY  1500   49 58   30/  6/  7 1024.6R
STATE DOCKS      1500   49 56              1025.4R
MEAHER PARK      1400   48      30/  3     1025.7R
WEEKS BAY        1400   45                   N/A
FORT MORGAN      1500   53      70/ 12/ 13 1023.9S
12 S ORANGE BCH  1500   65 68  110/  8/ 10 1023.9R   3/ 4
PENSACOLA BAY    1500   53 60   50/  5/  8 1025.5R
64 S DAUPHIN ISL 1500   65 73  130/ 12/ 14 1023.4R   2/ 4

$$

SELECTED LOCATIONS ACROSS THE REGION

CITY           SKY/WX    TMP DP  RH WIND       PRES   REMARKS
NEW ORLEANS    PTSUNNY   58  50  75 E8        30.22R
GULFPORT       PTSUNNY   49  44  83 NE5       30.26R
PASCAGOULA AP  CLOUDY    48  45  89 N7        30.27R
PASCAGOULA*      N/A     50  46  87 N2        30.27R
HATTIESBURG    CLOUDY    44  41  89 CALM      30.31R
LAUREL         PTSUNNY   45  39  81 NE6       30.30R
MERIDIAN       PTSUNNY   43  39  86 NE5       30.33R
JACKSON        CLOUDY    47  41  80 E6        30.26F
MONTGOMERY     MOSUNNY   44  38  79 CALM      30.38R
TROY           SUNNY     46  38  73 CALM      30.35R
KINSTON*       NOT AVBL
GENEVA*          N/A     48  41  76 E2        30.34R
ASHFORD*         N/A     46  41  81 E8        30.30R
DOTHAN         SUNNY     49  41  74 E5        30.35R
PANAMA CITY    SUNNY     50  41  71 E7        30.29R

$$



USA.gov is the U.S. government's official web portal to all federal, state and local government web resources and services.